Location: Newark
(13.9670°N, 101.5170°E)
Time: 16:12:43
(UTC+00:00)

Hubble Space Telescope - Visible Passes

Search period start: 19 July 2019 00:00
Search period end: 29 July 2019 00:00
Orbit: 536 x 540 km, 28.5° (Epoch: 18 July)

Date Brightness Start Highest point End Pass type
(mag) Time Alt. Az. Time Alt. Az. Time Alt. Az.
21 Jul 3.4 20:48:21 12° SE 20:48:21 12° SE 20:49:09 10° ESE visible
21 Jul 0.8 22:23:43 10° WSW 22:27:51 83° SSE 22:31:59 10° ENE visible
22 Jul 3.5 20:38:30 14° ESE 20:38:30 14° ESE 20:39:21 10° E visible
22 Jul 0.8 22:13:50 14° WSW 22:17:19 72° NNW 22:21:27 10° ENE visible
23 Jul 3.6 20:28:36 13° E 20:28:36 13° E 20:29:16 10° E visible
23 Jul 1.2 22:03:57 18° W 22:06:49 53° NNW 22:10:51 10° NE visible
24 Jul 3.9 20:18:41 12° E 20:18:41 12° E 20:19:01 10° E visible
24 Jul 1.6 21:54:01 21° W 21:56:19 39° NNW 22:00:13 10° NE visible
25 Jul 2.0 21:44:03 22° WNW 21:45:52 31° NNW 21:49:33 10° NE visible
26 Jul 2.4 21:34:04 21° NW 21:35:24 25° NNW 21:38:50 10° NE visible
27 Jul 2.6 21:24:03 19° NW 21:24:58 21° NNW 21:28:06 10° NNE visible
28 Jul 2.9 21:14:01 17° NNW 21:14:34 17° NNW 21:17:21 10° NNE visible
